Time,TemperatureF,DewpointF,PressureIn,WindDirection,WindDirectionDegrees,WindSpeedMPH,WindSpeedGustMPH,Humidity,HourlyPrecipIn,Conditions,Clouds,dailyrainin,SoftwareType,DateUTC
2014-08-20 00:23:00,76.0,70.0,29.97,SE,134,0.0,0.0,82,0.00,,,0.00,,2014-08-20 04:23:00,
2014-08-20 00:53:00,75.0,71.0,30.00,SE,134,0.0,0.0,87,0.00,,,0.00,,2014-08-20 04:53:00,
2014-08-20 01:53:00,74.0,71.0,30.01,SE,136,0.0,0.0,89,0.00,,,0.00,,2014-08-20 05:53:00,
2014-08-20 02:22:00,75.0,71.0,30.01,WSW,240,0.0,2.0,88,0.00,,,0.00,,2014-08-20 06:22:00,
2014-08-20 02:52:00,74.0,71.0,30.00,WSW,241,0.0,0.0,89,0.00,,,0.00,,2014-08-20 06:52:00,
2014-08-20 03:22:00,73.0,70.0,29.99,WSW,239,0.0,0.0,91,0.00,,,0.00,,2014-08-20 07:22:00,
2014-08-20 04:22:00,73.0,71.0,29.99,WSW,240,0.0,0.0,92,0.00,,,0.00,,2014-08-20 08:22:00,
2014-08-20 05:22:00,73.0,71.0,30.00,WSW,240,0.0,2.0,93,0.00,,,0.00,,2014-08-20 09:22:00,
2014-08-20 05:52:00,73.0,71.0,30.00,WSW,241,0.0,2.0,93,0.00,,,0.00,,2014-08-20 09:52:00,
2014-08-20 07:22:00,72.0,70.0,30.03,West,268,0.0,2.0,94,0.00,,,0.00,,2014-08-20 11:22:00,
2014-08-20 07:52:00,72.0,70.0,30.02,West,268,0.0,0.0,94,0.00,,,0.00,,2014-08-20 11:52:00,
2014-08-20 08:22:00,72.0,70.0,30.03,West,268,0.0,2.0,94,0.00,,,0.00,,2014-08-20 12:22:00,
2014-08-20 08:53:00,73.0,71.0,30.03,West,268,0.0,2.0,94,0.00,,,0.00,,2014-08-20 12:53:00,
2014-08-20 09:52:00,76.0,74.0,30.05,West,274,0.0,6.0,92,0.00,,,0.00,,2014-08-20 13:52:00,
2014-08-20 10:22:00,78.0,74.0,30.05,SW,236,0.0,7.0,89,0.00,,,0.00,,2014-08-20 14:22:00,
2014-08-20 10:53:00,80.0,76.0,30.09,WNW,285,1.0,5.0,87,0.00,,,0.00,,2014-08-20 14:53:00,
2014-08-20 11:22:00,81.0,75.0,30.09,SW,219,0.0,5.0,82,0.00,,,0.00,,2014-08-20 15:22:00,
2014-08-20 12:23:00,83.0,75.0,30.10,South,174,0.0,7.0,78,0.00,,,0.00,,2014-08-20 16:23:00,
2014-08-20 13:52:00,88.0,77.0,30.09,SSW,195,0.0,7.0,70,0.00,,,0.00,,2014-08-20 17:52:00,
2014-08-20 14:22:00,88.0,76.0,30.09,WNW,282,1.0,7.0,67,0.00,,,0.00,,2014-08-20 18:22:00,
2014-08-20 14:52:00,89.0,76.0,30.08,SW,215,0.0,8.0,66,0.00,,,0.00,,2014-08-20 18:52:00,
2014-08-20 15:22:00,90.0,76.0,30.07,West,275,1.0,7.0,63,0.00,,,0.00,,2014-08-20 19:22:00,
2014-08-20 15:53:00,92.0,76.0,30.04,SW,230,2.0,6.0,59,0.00,,,0.00,,2014-08-20 19:53:00,
2014-08-20 16:53:00,92.0,74.0,30.04,WSW,253,3.0,12.0,56,0.00,,,0.00,,2014-08-20 20:53:00,
2014-08-20 17:22:00,92.0,75.0,30.03,SSW,208,0.0,8.0,57,0.00,,,0.00,,2014-08-20 21:22:00,
2014-08-20 17:54:00,88.0,74.0,30.03,WSW,244,0.0,8.0,63,0.00,,,0.00,,2014-08-20 21:54:00,
2014-08-20 18:23:00,80.0,65.0,30.08,East,86,0.0,12.0,61,0.00,,,0.00,,2014-08-20 22:23:00,
2014-08-20 18:53:00,76.0,65.0,30.07,ENE,73,0.0,0.0,69,0.00,,,0.00,,2014-08-20 22:53:00,
2014-08-20 19:23:00,74.0,67.0,30.06,ENE,73,0.0,1.0,78,0.00,,,0.00,,2014-08-20 23:23:00,
2014-08-20 19:53:00,73.0,68.0,30.10,ENE,73,0.0,0.0,84,0.00,,,0.00,,2014-08-20 23:53:00,
2014-08-20 20:53:00,72.0,68.0,30.14,ENE,73,0.0,0.0,88,0.00,,,0.00,,2014-08-21 00:53:00,